Flag for Barbados Weather past 2 weeks in Bridgetown, Barbados

Now
84 °F

Scattered clouds.


Feels Like: 88 °F
Forecast: 78 / 83 °F
Wind: 25 mph from Northeast

Location: Grantley Adams

Current Time: Mar 4, 2015 at 1:07:33 PM

Latest Report: Mar 4, 2015 at 12:00 PM


Visibility: N/A

Pressure: 30.01 "Hg

Humidity: 62%

Dew point: 70 °F

Location of BridgetownLocation

Historic Weather in Bridgetown — Graph

°F

Bridgetown temperature yesterday

Maximum temperature yesterday: 82 °F (at 1:00 PM)
Minimum temperature yesterday: 72 °F (at 4:00 PM)
Average temperature yesterday: 76 °F

Past Weeks' High & Low Weather Summary

 TemperatureHumidityPressure
High86 °F (Feb 17, 1:00 PM)100% (Mar 3, 4:00 PM)30.07 "Hg (Mar 3, 4:00 PM)
Low70 °F (Feb 25, 5:00 AM)55% (Feb 18, 11:00 AM)29.89 "Hg (Feb 19, 3:00 PM)
Average79 °F74%29.97 "Hg
* Reported Feb 17 12:00 Noon — Mar 4 12:00 Noon, Bridgetown, Weather by CustomWeather, © 2015

Note: Actual official high and low records may vary slightly from our data, if they occured in-between our weather recording intervals... More about our weather records

Advertising

Bridgetown weather history for previous 24 hours

 ConditionsComfort  
Time TempWeatherWind HumidityBarometerVisibility
12:00 PM
Wed, Mar 4
84 °FScattered clouds.25 mph62%30.01 "HgN/A
11:00 AM84 °FPassing clouds.24 mph66%30.01 "HgN/A
10:00 AM84 °FScattered clouds.22 mph66%30.01 "HgN/A
9:00 AM81 °FPassing clouds.23 mph70%30.01 "HgN/A
8:00 AM79 °FPassing clouds.22 mph74%29.98 "HgN/A
6:00 AM77 °FScattered showers. Partly cloudy.20 mph83%29.92 "HgN/A
5:00 AM77 °FSprinkles. Passing clouds.21 mph83%29.92 "HgN/A
4:00 AM77 °FPassing clouds.21 mph79%29.92 "HgN/A
3:00 AM77 °FPassing clouds.21 mph79%29.92 "HgN/A
2:00 AM77 °FPassing clouds.20 mph79%29.92 "HgN/A
1:00 AM77 °FPassing clouds.23 mph79%29.95 "HgN/A
12:00 AM77 °FPassing clouds.21 mph79%29.98 "HgN/A
11:00 PM
Tue, Mar 3
77 °FPassing clouds.21 mph83%29.98 "HgN/A
10:00 PM77 °FPassing clouds.15 mph83%29.98 "HgN/A
9:00 PM73 °FPassing clouds.13 mph89%29.98 "HgN/A
8:00 PM73 °FPassing clouds.17 mph89%29.95 "HgN/A
7:00 PM73 °FPassing clouds.15 mph89%29.95 "HgN/A
6:00 PM75 °FScattered clouds.13 mph83%29.92 "HgN/A
5:00 PM73 °FLight rain. Broken clouds.20 mph94%29.92 "Hg5 mi
4:00 PM72 °FLight rain. Broken clouds.16 mph100%29.92 "Hg4 mi
3:00 PM75 °FLight rain. Broken clouds.21 mph89%29.92 "Hg5 mi
2:00 PM79 °FScattered clouds.21 mph84%29.95 "HgN/A
1:00 PM82 °FPartly sunny.23 mph66%29.95 "HgN/A
Weather by CustomWeather, © 2015

See weather overviewHow to use our weather pages